Regional Weather Roundup
Issued by NWS

Home | Current Version | Previous Version | Text Only | Print | Product List | Glossary Off
Versions: 1 2 3 4 5 6 7 8 9 10 11 12 13 14 15 16 17 18 19 20 21 22 23 24 25 26 27 28 29 30 31 32 33 34 35 36 37 38 39 40 41 42 43 44 45 46 47 48 49 50

000
ASUS43 KMKX 021511
RWRWI

WISCONSIN REGIONAL WEATHER ROUNDUP
NATIONAL WEATHER SERVICE MILWAUKEE/SULLIVAN WI
900 AM CST FRI DEC 02 2016

NOTE: "FAIR" INDICATES FEW OR NO CLOUDS BELOW 12,000 FEET WITH NO
SIGNIFICANT WEATHER AND/OR OBSTRUCTIONS TO VISIBILITY.

WIZ001-002-006>008-014>016-023>028-021600-
NORTHWEST WISCONSIN

CITY           SKY/WX    TMP DP  RH WIND       PRES   REMARKS
SUPERIOR ARPT  CLOUDY    29  23  77 W8        30.18R WCI  21
ASHLAND        CLOUDY    29  23  78 W13       30.16R WCI  19
HAYWARD        CLOUDY    29  21  72 CALM      30.15R
SIREN          CLOUDY    30  24  77 NW7       30.17R WCI  23
CUMBERLAND     CLOUDY    30  23  74 NW5       30.15R WCI  25
RICE LAKE      CLOUDY    30  24  77 W3        30.17R
CHETEK         CLOUDY    30  23  76 W5        30.16R WCI  25
LADYSMITH      CLOUDY    30  24  76 NW8       30.15R WCI  23
EAU CLAIRE     CLOUDY    30  21  69 W6        30.17R WCI  24
MENOMONIE      CLOUDY    31  23  71 W3        30.18R
NEW RICHMOND   CLOUDY    30  23  75 W3        30.18R
OSCEOLA        CLOUDY    32  25  77 CALM      30.21R
$$

WIZ003>005-009-010-017-018-021600-
NORTH CENTRAL WISCONSIN

CITY           SKY/WX    TMP DP  RH WIND       PRES   REMARKS
MANITOWISH WTR CLOUDY    26  26  99 W6        30.08R WCI  19
ARBOR VITAE    CLOUDY    29  26  86 NW8       30.08R WCI  21
WOODRUFF       CLOUDY    29  26  86 NW8       30.08R WCI  21
RHINELANDER    CLOUDY    29  24  82 NW5       30.08R WCI  24
EAGLE RIVER    CLOUDY    28  24  87 NW12      30.06S WCI  18
LAND O LAKES   CLOUDY    28  27  96 NW9       30.08R FOG     WCI  20
PHILLIPS       CLOUDY    28  23  84 NW6       30.10R WCI  21
TOMAHAWK       CLOUDY    27  22  79 NW9       30.11R WCI  18
MEDFORD        CLOUDY    28  21  77 N9        30.11R WCI  19
MERRILL        CLOUDY    28  22  78 NW7       30.12R WCI  21
$$

WIZ029-030-035-036-043>047-021600-
CENTRAL WISCONSIN

CITY           SKY/WX    TMP DP  RH WIND       PRES   REMARKS
WAUSAU         CLOUDY    29  22  75 N7        30.11R WCI  22
MOSINEE        CLOUDY    28  25  86 NW9       30.12R WCI  20
MARSHFIELD     CLOUDY    30  22  72 NW13      30.12R WCI  20
STEVENS POINT  CLOUDY    28  21  74 NW7       30.13R WCI  21
WAUPACA        CLOUDY    33  24  69 NW6       30.13R WCI  28
WAUTOMA        NOT AVBL
WISC RAPIDS    CLOUDY    31  22  69 NW8       30.15R WCI  23
CAMP DOUGLAS   CLOUDY    30  23  74 NW10      30.15R WCI  21
$$

WIZ011>013-019>022-031-037>040-048>050-021600-
NORTHEAST WISCONSIN

CITY           SKY/WX    TMP DP  RH WIND       PRES   REMARKS
ANTIGO         CLOUDY    28  24  82 NW9       30.08R WCI  20
SHAWANO        CLOUDY    34  24  68 W6        30.11R WCI  29
OCONTO         CLOUDY    33  24  70 NW6       30.09R WCI  27
STURGEON BAY   CLOUDY    33  24  69 NW12G18   30.09R WCI  24
GREEN BAY      CLOUDY    35  26  69 NW9       30.11R WCI  28
MANITOWOC      CLOUDY    34  25  69 MISG      30.11R
APPLETON       CLOUDY    32  21  64 NW6       30.10R WCI  26
CLINTONVILLE   CLOUDY    32  23  69 NW7       30.11R WCI  26
OSHKOSH        CLOUDY    32  24  72 W8        30.11R WCI  25
$$

WIZ032>034-041-042-053>061-021600-
SOUTHWEST WISCONSIN

CITY           SKY/WX    TMP DP  RH WIND       PRES   REMARKS
LA CROSSE      CLOUDY    34  23  64 NW9       30.18R WCI  27
SPARTA         CLOUDY    31  23  70 W8        30.18R WCI  24
VIROQUA        CLOUDY    31  25  79 NW12      30.14R WCI  21
BOSCOBEL       CLOUDY    35  22  58 NW9       30.18R WCI  28
PRAIRIE DU CHI CLOUDY    35  24  65 NW9       30.18R WCI  27
PLATTEVILLE    CLOUDY    35  31  85 W10G16    30.16R WCI  27
$$

WIZ056-057-062-063-064-067-068-021600-
SOUTH CENTRAL WISCONSIN

CITY           SKY/WX    TMP DP  RH WIND       PRES   REMARKS
REEDSBURG      CLOUDY    32  24  74 N7        30.15R WCI  25
BARABOO/DELLS  CLOUDY    32  22  67 NW8       30.14R WCI  24
LONE ROCK      CLOUDY    34  24  67 NW8       30.17R WCI  27
MINERAL POINT  CLOUDY    34  30  86 NW10      30.14R WCI  26
MADISON        CLOUDY    33  25  72 NW6       30.14R WCI  28
MIDDLETON      CLOUDY    34  28  76 N13       30.15R WCI  25
WATERTOWN      CLOUDY    32  24  73 W12       30.13R WCI  23
MONROE         CLOUDY    34  32  93 NW7       30.13R WCI  28
JANESVILLE     CLOUDY    37  34  87 NW7       30.13R WCI  32
$$

WIZ051-052-058>065-066-070>072-021600-
SOUTHEAST WISCONSIN

CITY           SKY/WX    TMP DP  RH WIND       PRES   REMARKS
MILWAUKEE      CLOUDY    35  23  61 NW13      30.12R WCI  26
WAUKESHA       CLOUDY    30  25  80 NW13      30.13R WCI  20
MILWAUKEE/TIMM CLOUDY    34  21  60 NW9       30.13R WCI  26
RACINE         CLOUDY    35  24  64 NW13      30.14R WCI  26
BURLINGTON     CLOUDY    34  27  76 NW10      30.13R WCI  26
KENOSHA        CLOUDY    36  27  69 NW8       30.13R WCI  30
FOND DU LAC    CLOUDY    33  22  63 NW8       30.12R WCI  26
SHEBOYGAN      CLOUDY    33  25  72 NW8       30.11R WCI  26
WEST BEND      CLOUDY    32  25  74 NW12      30.11R WCI  23
JUNEAU         CLOUDY    32  25  76 W5        30.14R WCI  27
$$

LSZ147-162-021600-
LAKE SUPERIOR

STATION/POSITION TIME  TEMP    WIND        PRES    WAVE
                       AIR SEA DIR/SP/G            HT/PER
                 (UTC) (F)     (DEG/KT/KT) (MB)    (FT/S)
DEVILS ISLAND    1500   32     320/ 10/ 12 1021.6R
PORT WING        1440   30     320/  6/  9 1021.3R
SAXON HARBOR     1440   31     260/  4/  7 1020.3R
$$

LMZ867-665-643>646-021600-
LAKE MICHIGAN

STATION/POSITION TIME  TEMP    WIND        PRES    WAVE
                       AIR SEA DIR/SP/G            HT/PER
                 (UTC) (F)     (DEG/KT/KT) (MB)    (FT/S)
CHAMBERS ISLAND  1440   33     280/  7/ 12 1017.9R
NORTHPORT PIER   1440   34     300/ 15/ 21 1017.6R
SISTER BAY       1408   34     320/ 19/ 21   N/A
ALGOMA LAKESHORE 1436          330/ 11/ 13   N/A
KEWAUNEE LAKESHO 1448   33     320/  5/  7 1018.3R
SHEBOYGAN LAKESH 1500   34     320/ 10/ 13 1020.2R
PORT WASHINGTON  1440   34     280/  5/ 11 1020.7R
MILWAUKEE LAKESH 1450   35     290/  9/ 11   N/A
S MID LAKE BUOY  1450   38 49  300/ 17/ 21 1019.6R   4/ 5
KENOSHA   LAKESH 1500   36     320/  9/ 13 1020.3
$$

TC  - TEMPERATURE IN CELSIUS
VSB - VISIBILITY IN STATUTE MILES
WCI - WIND CHILL INDEX
HX  - HEAT INDEX




USA.gov is the U.S. government's official web portal to all federal, state and local government web resources and services.